GAOFEN-12 02

Last updated on Tue Sep 16 2025 00:02:31 GMT+0000 (Coordinated Universal Time)

1 48079U 21026A 25258.61470233 .00000454 00000+0 66208-4 0 9995 2 48079 97.9810 253.0631 0003362 56.1629 303.9902 14.80508680241134
UTC large
Height (km)
Speed (km/s)
/
Latitude / Longitude
Inclination (degrees)
Orbital Period (minutes)
Azimuth
Elevation
Range (km)
Doppler Factor

Next 0 passes for location: London (51.5072 / 0.1276)

Sorry there are no passes over London.